[Date Prev][Date Next][Thread Prev][Thread Next] - [Date Index][Thread Index][Author Index]
2 Line ISS Keps 11-3
- Subject: [sarex] 2 Line ISS Keps 11-3
- From: "Dave Larsen PhD" <doc@xxxxxxxxxxx>
- Date: Sat, 3 Nov 2001 04:17:34 -0800
ISS
1 25544U 98067A 01307.08806719 .00095069 00000-0 11709-2 0 6817
2 25544 51.6395 110.1744 0008944 279.9137 188.4112 15.59394135168759
----
Via the sarex mailing list at AMSAT.ORG courtesy of AMSAT-NA.
To unsubscribe, send "unsubscribe sarex" to Majordomo@amsat.org
AMSAT Home